This is the latest recevied weather packets stored in our database for station/object DG7FDL-7. If no packets are shown the sender has not sent any weather packets the latest 10 day(s).
| Time | Temp. | Humidity | Pressure | Rain* | Wind** | Luminosity | Snow |
|---|---|---|---|---|---|---|---|
| 1777794711 | 22.78° C | 39% | 1016.3 hPa | - | - | - | - |
| 1777793800 | 22.78° C | 37% | 1016.2 hPa | - | - | - | - |
| 1777792901 | 23.33° C | 37% | 1015.9 hPa | - | - | - | - |
| 1777791987 | 23.33° C | 37% | 1015.8 hPa | - | - | - | - |
| 1777791117 | 22.78° C | 38% | 1015.6 hPa | - | - | - | - |
| 1777790190 | 22.78° C | 38% | 1015.8 hPa | - | - | - | - |
| 1777789306 | 22.78° C | 37% | 1015.8 hPa | - | - | - | - |
| 1777788386 | 23.33° C | 36% | 1015.6 hPa | - | - | - | - |
| 1777787511 | 23.33° C | 36% | 1015.6 hPa | - | - | - | - |
| 1777786579 | 24.44° C | 36% | 1015.7 hPa | - | - | - | - |
| 1777785701 | 23.89° C | 37% | 1015.8 hPa | - | - | - | - |
| 1777784779 | 24.44° C | 37% | 1015.9 hPa | - | - | - | - |
| 1777783901 | 24.44° C | 36% | 1015.9 hPa | - | - | - | - |
| 1777782978 | 24.44° C | 36% | 1016 hPa | - | - | - | - |
| 1777782102 | 24.44° C | 37% | 1016 hPa | - | - | - | - |
| 1777781200 | 24.44° C | 36% | 1016.1 hPa | - | - | - | - |
| 1777780296 | 23.89° C | 37% | 1016 hPa | - | - | - | - |
| 1777779378 | 24.44° C | 36% | 1016 hPa | - | - | - | - |
| 1777778501 | 24.44° C | 36% | 1016.1 hPa | - | - | - | - |
| 1777777586 | 23.89° C | 37% | 1016 hPa | - | - | - | - |
| 1777776691 | 23.89° C | 37% | 1016 hPa | - | - | - | - |
| 1777775774 | 23.89° C | 36% | 1015.9 hPa | - | - | - | - |
| 1777774876 | 23.89° C | 37% | 1016 hPa | - | - | - | - |
| 1777773974 | 24.44° C | 36% | 1016.1 hPa | - | - | - | - |
| 1777773074 | 24.44° C | 37% | 1016.2 hPa | - | - | - | - |
* Rain since midnight (hover to see other rain measurements)
** Current wind speed in m/s (hover to see current wind gust speed)